sat.trackr.live / text

‹ back to catalog

JACKAL-004

NORAD 69012 · 2026-100AJ

PAYLOAD ACTIVE UNKNOWN

§ Identity

Operator
Country
US
Launch date
2026-05-03
Launch site
AFWTR
Launch vehicle
Mass (kg)
RCS (m²)

External: N2YO · Heavens-Above · Gunter

§ Orbital elements

Epoch: 2026-05-25T04:23:39.479712Z

Period
94.71 min
Inclination
97.4065°
Eccentricity
0.0007145
Mean motion
15.20490838 rev/d
Perigee alt
499.4 km
Apogee alt
509.3 km
Semi-major
6,882.5 km
B*
1.6331e-4
RAAN
43.4246°
Arg perigee
108.4602°
Mean anomaly
251.7410°
Rev number
331

§ Raw data

JACKAL-0041 69012U 26100AJ  26145.18309583  .00003501  00000+0  16331-3 0  99972 69012  97.4065  43.4246 0007145 108.4602 251.7410 15.20490838  3319

JSON: /api/v1/satellites/69012 · /tle

For live sub-satellite position, see the globe view (requires WebGL).

§ Visibility from observer

Set your observer location to see the next 7 days of passes ≥ 10°. The values pass through the URL so the page stays shareable.

No JS? Fill the form by hand. The geolocation button needs JavaScript.